Retour au catalogue

COSMOS 1247 DEB

LostHEO
NORAD 26786·DEBRIS·🇷🇺 Russia

Lancé Feb 19, 1981 depuis Plesetsk Cosmodrome

Loading…

Prochains Passages (prochaines 24 heures)

TLE

PériméSource: Space-Track

Époque: Sep 15, 2025, 08:51 UTC

1 26786U 81016J   25258.36909175 -.00000620  00000-0  00000-0 0  9996
2 26786  70.3413  32.8740 5689468 331.1693   6.6416  2.05138850219114

Suivez COSMOS 1247 DEB en temps réel avec AllMySat

Download on the App Store